AirNav   Everest Fuels
 
 1062 users online  

8B5 Tanner-Hiller Airport
Barre/Barre Plains, Massachusetts, USA

GOING TO BARRE/BARRE PLAINS?


FAA INFORMATION EFFECTIVE 15 AUGUST 2019

Location

FAA Identifier: 8B5
Lat/Long: 42-21-23.0000N 072-07-48.3000W
42-21.383333N 072-07.805000W
42.3563889,-72.1300833
(estimated)
Elevation: 589 ft. / 180 m (estimated)
Variation: 15W (1985)
From city: 4 miles SW of central business district of the associated city
Time zone: UTC -4 (UTC -5 during Standard Time)
Zip code: 01531

Airport Operations

Airport use: Open to the public
Activation date: 11/1946
Control tower: no
ARTCC: BOSTON CENTER
FSS: BRIDGEPORT FLIGHT SERVICE STATION
NOTAMs facility: BDR (NOTAM-D service available)
Attendance: UNATNDD
Wind indicator: yes
Segmented circle: no

Airport Communications

CTAF/UNICOM: 123.0
WX ASOS at ORH (12 nm SE): PHONE 508-795-7546
WX ASOS at ORE (15 nm NW): 135.675 (978-544-6774)

Nearby radio navigation aids

VOR radial/distance  VOR name  Freq  Var
GDMr210/11.8GARDNER VOR/DME110.6014W
PUTr346/27.2PUTNAM VOR/DME117.4014W
EENr179/27.2KEENE VORTAC109.4014W
BAFr080/28.5BARNES VORTAC113.0014W
CTRr097/36.6CHESTER VOR/DME115.1013W

 
NDB name  Hdg/Dist  Freq  Var  ID
FITCHBURG250/20.236515WFIT ..-. .. -

Airport Services

Parking: hangars and tiedowns
Airframe service: MINOR
Powerplant service: MINOR
Bottled oxygen: NONE
Bulk oxygen: NONE

Runway Information

Runway 6/24

Dimensions: 3027 x 40 ft. / 923 x 12 m
Surface: asphalt, in fair condition
Weight bearing capacity: 
Single wheel: 9.0
RUNWAY 6  RUNWAY 24
Latitude: 42-21.210210N42-21.556043N
Longitude: 072-08.047612W072-07.563877W
Elevation: 581.6 ft.589.0 ft.
Traffic pattern: leftleft
Displaced threshold: 150 ft.200 ft.
Markings: numbers only, in fair conditionnumbers only, in fair condition
Runway end identifier lights: nono
Touchdown point: yes, no lightsyes, no lights
Obstructions: 25 ft. trees, 400 ft. from runway, 100 ft. right of centerline, 8:1 slope to clear
72 FT TREES 57 FT FM THLD 65 FT L.
33 ft. trees, 400 ft. from runway, 39 ft. left and right of centerline, 6:1 slope to clear
RY 24 30:1 AT DSPLCD THLD.

Airport Ownership and Management from official FAA records

Ownership: Privately-owned
Owner: G&C GROUP USA
525 MAIN ST
ACTON, MA 01720
Phone (781) 296-1120
Manager: DOUG HERLIHY
295 MCEVOY ROAD
NEW BRAINTREE, MA 01531
Phone (609) 923-3228

Airport Operational Statistics

Aircraft based on the field: 25
Single engine airplanes: 4
Gliders airplanes: 15
Ultralights: 6
    
Aircraft operations: avg 47/month *
88% local general aviation
9% transient general aviation
3% military
* for 12-month period ending 27 April 2016

Additional Remarks

RWY 24 HAS GRVL OVRN, RWY 06 HAS TURF OVRN.
GLIDERS OPR FM ARPT ON INTMT BASIS. GLIDERS AND POWERED ACFT: FOLLOW LEFT TRAFFIC PATTERN ON BOTH RWYS.
WILDLIFE ON & INVOF ARPT.
FUEL NOT AVBL.
AP CLSD EXC PPR - REF NOTAMS
FOR CD CTC YANKEE APCH AT 860-386-3597

Instrument Procedures

There are no published instrument procedures at 8B5.

Some nearby airports with instrument procedures:

KORH - Worcester Regional Airport (12 nm SE)
KGDM - Gardner Municipal Airport (13 nm NE)
KORE - Orange Municipal Airport (15 nm NW)
3B0 - Southbridge Municipal Airport (16 nm S)
KFIT - Fitchburg Municipal Airport (20 nm NE)
 
Loc | Ops | Rwys | IFR | FBO | Links
Com | Nav | Svcs | Stats | Notes
Area around 8B5 (Tanner-Hiller Airport)
 
Road maps at: MapQuest Bing Google
 
Aerial photo
WARNING: Photo may not be current or correct
Aerial photo of 8B5 (Tanner-Hiller Airport)
Photo by Bruce Vinal, Aerial Perspectives
Photo taken 18-Dec-2010
looking southwest.

Do you have a better or more recent aerial photo of Tanner-Hiller Airport that you would like to share? If so, please send us your photo.

 
Sectional chart

 
Airport distance calculator
Flying to Tanner-Hiller Airport? Find the distance to fly.

From to 8B5

Sunrise and sunset
Times for 17-Aug-2019
 Local
(UTC-4)
 Zulu
(UTC)
Morning civil twilight05:2909:29
Sunrise05:5909:59
Sunset19:4623:46
Evening civil twilight20:1700:17

Current date and time
Zulu (UTC)  17-Aug-2019 14:10:27
Local (UTC-4)  17-Aug-2019 10:10:27
 
METAR
KORH 
13nm SE 
171354Z 18004KT 10SM OVC006 21/19 A3010 RMK AO2 SLP188 T02060189
KORE 
14nm NW 
171352Z AUTO 18007KT 150V210 10SM OVC010 23/18 A3008 RMK AO2 SLP182 T02280183
KCEF 
20nm SW 
171356Z 00000KT 10SM OVC007 22/19 A3005 RMK AO2A SLP181 T02180190
KFIT 
20nm NE 
171352Z AUTO 00000KT 10SM OVC010 22/18 A3008 RMK AO2 SLP184 T02170183
TAF
KORH 
13nm SE 
171130Z 1712/1812 17004KT 1SM BR VV002 FM171600 16004KT P6SM BKN025 FM172000 18003KT P6SM BKN035 FM180000 14003KT P6SM BKN030 FM180500 22003KT 4SM BR BKN016 FM180800 24003KT 6SM BR BKN020 FM181000 24003KT P6SM BKN040
KCEF 
20nm SW 
171230Z 1712/1816 17006KT 9999 OVC008 QNH3005INS TEMPO 1712/1716 SCT008 BKN012 BECMG 1715/1716 18009KT 9999 BKN020 QNH3003INS BECMG 1716/1717 20009KT 9999 BKN040 QNH2997INS TEMPO 1719/1722 -SHRA BKN025 BKN050 BECMG 1722/1723 VRB06KT 9999 FEW025 QNH2999INS BECMG 1803/1804 16005KT 9999 OVC006 QNH2999INS BECMG 1812/1813 20006KT 9999 SCT006 BKN010 QNH3001INS TX28/1720Z TN19/1810Z
NOTAMs
Click for the latest NOTAMs
NOTAMs are issued by the DoD/FAA and will open in a separate window not controlled by AirNav.

 

 
 

Would you like to see your business listed on this page?

 If your business provides an interesting product or service to pilots, flight crews, aircraft, or users of the Tanner-Hiller Airport, you should consider listing it here.  To start the listing process, click on the button below
 
Add a business
 

Other Pages about Tanner-Hiller Airport

www.tannerhillerairport.com
 
Update a link
 
Copyright © AirNav, LLC. All rights reserved. Privacy Policy  Contact